Location: Spring Creek
(38.2870°N, 100.2160°W)
Time: 02:09:16
(UTC+00:00)

Cosmos 2322 Rocket - Pass Details

Date: 08 May 2021
Orbit: 831 x 852 km, 71.0° (Epoch: 22 June)

Event Time Altitude Azimuth Distance (km) Brightness Sun altitude
Rises 11:02:35 0° 183° (S) 3,373 5.0 -6.8°
Reaches altitude 10° 11:05:06 10° 177° (S) 2,446 4.4 -6.3°
Maximum altitude 11:10:25 45° 106° (ESE) 1,139 3.4 -5.4°
Drops below altitude 10° 11:15:46 10° 35° (NE) 2,474 5.8 -4.5°
Sets 11:18:19 0° 30° (NNE) 3,416 6.4 -4.0°
